TimeMST,TemperatureF,Dew PointF,Humidity,Sea Level PressureIn,VisibilityMPH,Wind Direction,Wind SpeedMPH,Gust SpeedMPH,PrecipitationIn,Events,Conditions,WindDirDegrees,DateUTC
12:15 AM,5.0,3.2,92,30.13,10.0,NNW,5.8,-,N/A,,Clear,330,2013-02-07 07:15:00
12:35 AM,5.0,3.2,92,30.13,10.0,Calm,Calm,-,N/A,,Clear,0,2013-02-07 07:35:00
12:55 AM,5.0,1.4,85,30.13,10.0,Calm,Calm,-,N/A,,Clear,0,2013-02-07 07:55:00
1:15 AM,3.2,1.4,92,30.13,10.0,West,6.9,-,N/A,,Clear,270,2013-02-07 08:15:00
1:35 AM,3.2,1.4,92,30.13,10.0,WNW,9.2,-,N/A,,Clear,290,2013-02-07 08:35:00
1:55 AM,3.2,-0.4,85,30.13,10.0,West,5.8,-,N/A,,Clear,280,2013-02-07 08:55:00
2:15 AM,1.4,-2.2,85,30.14,10.0,NW,9.2,-,N/A,,Clear,310,2013-02-07 09:15:00
2:35 AM,1.4,-2.2,85,30.14,10.0,NW,5.8,-,N/A,,Clear,310,2013-02-07 09:35:00
2:55 AM,-0.4,-4.0,85,30.14,10.0,NNW,5.8,-,N/A,,Clear,330,2013-02-07 09:55:00
3:15 AM,-0.4,-5.8,78,30.14,10.0,NNW,4.6,-,N/A,,Scattered Clouds,340,2013-02-07 10:15:00
3:35 AM,-0.4,-2.2,92,30.14,10.0,NW,4.6,-,N/A,,Scattered Clouds,310,2013-02-07 10:35:00
3:55 AM,-2.2,-5.8,85,30.14,10.0,West,8.1,-,N/A,,Clear,260,2013-02-07 10:55:00
4:15 AM,-4.0,-5.8,92,30.14,10.0,WNW,5.8,-,N/A,,Clear,300,2013-02-07 11:15:00
4:35 AM,-4.0,-5.8,92,30.14,10.0,WNW,9.2,-,N/A,,Clear,300,2013-02-07 11:35:00
4:55 AM,-2.2,-5.8,85,30.14,10.0,WNW,8.1,-,N/A,,Clear,290,2013-02-07 11:55:00
5:15 AM,-4.0,-7.6,85,30.14,10.0,West,6.9,-,N/A,,Clear,280,2013-02-07 12:15:00
5:35 AM,-4.0,-7.6,85,30.14,10.0,NW,4.6,-,N/A,,Scattered Clouds,310,2013-02-07 12:35:00
5:55 AM,-4.0,-7.6,85,30.14,10.0,WNW,6.9,-,N/A,,Scattered Clouds,300,2013-02-07 12:55:00
6:15 AM,-5.8,-9.4,84,30.13,10.0,NW,6.9,-,N/A,,Clear,310,2013-02-07 13:15:00
6:35 AM,-5.8,-11.2,77,30.13,10.0,WNW,6.9,-,N/A,,Clear,300,2013-02-07 13:35:00
6:55 AM,-5.8,-9.4,84,30.14,10.0,NW,6.9,-,N/A,,Clear,310,2013-02-07 13:55:00
7:15 AM,-5.8,-9.4,84,30.14,10.0,West,9.2,-,N/A,,Clear,280,2013-02-07 14:15:00
7:35 AM,-5.8,-9.4,84,30.14,10.0,West,5.8,-,N/A,,Scattered Clouds,260,2013-02-07 14:35:00
7:55 AM,-5.8,-9.4,84,30.14,10.0,West,6.9,-,N/A,,Clear,260,2013-02-07 14:55:00
8:15 AM,-4.0,-7.6,85,30.15,10.0,West,4.6,-,N/A,,Clear,270,2013-02-07 15:15:00
8:35 AM,-2.2,-5.8,85,30.16,10.0,NW,4.6,-,N/A,,Clear,310,2013-02-07 15:35:00
8:55 AM,-2.2,-7.6,78,30.16,10.0,NW,6.9,-,N/A,,Clear,310,2013-02-07 15:55:00
9:15 AM,1.4,-5.8,72,30.15,10.0,WNW,8.1,-,N/A,,Clear,300,2013-02-07 16:15:00
9:35 AM,3.2,-4.0,72,30.15,10.0,WNW,6.9,-,N/A,,Clear,300,2013-02-07 16:35:00
9:55 AM,5.0,-2.2,72,30.15,10.0,NW,5.8,-,N/A,,Clear,310,2013-02-07 16:55:00
10:15 AM,8.6,-0.4,67,30.14,10.0,NW,5.8,-,N/A,,Clear,310,2013-02-07 17:15:00
10:35 AM,10.4,1.4,67,30.14,10.0,NW,4.6,-,N/A,,Clear,310,2013-02-07 17:35:00
10:55 AM,12.2,1.4,62,30.14,10.0,Calm,Calm,-,N/A,,Clear,0,2013-02-07 17:55:00
11:15 AM,14.0,3.2,62,30.14,10.0,NW,3.5,-,N/A,,Scattered Clouds,320,2013-02-07 18:15:00
11:35 AM,15.8,3.2,58,30.13,10.0,North,3.5,-,N/A,,Scattered Clouds,10,2013-02-07 18:35:00
11:55 AM,17.6,5.0,58,30.13,10.0,Calm,Calm,-,N/A,,Clear,0,2013-02-07 18:55:00
12:15 PM,19.4,5.0,54,30.11,10.0,NNE,3.5,-,N/A,,Clear,30,2013-02-07 19:15:00
12:35 PM,21.2,5.0,50,30.11,10.0,Calm,Calm,-,N/A,,Clear,0,2013-02-07 19:35:00
12:55 PM,23.0,8.6,54,30.09,10.0,Calm,Calm,-,N/A,,Clear,0,2013-02-07 19:55:00
1:15 PM,23.0,8.6,54,30.09,10.0,ENE,3.5,-,N/A,,Scattered Clouds,70,2013-02-07 20:15:00
1:35 PM,26.6,10.4,51,30.07,10.0,Calm,Calm,-,N/A,,Scattered Clouds,0,2013-02-07 20:35:00
1:55 PM,26.6,10.4,51,30.05,10.0,Calm,Calm,-,N/A,,Clear,0,2013-02-07 20:55:00
2:15 PM,26.6,10.4,51,30.04,10.0,Calm,Calm,-,N/A,,Clear,0,2013-02-07 21:15:00
2:35 PM,26.6,10.4,51,30.03,10.0,Calm,Calm,-,N/A,,Clear,0,2013-02-07 21:35:00
2:55 PM,28.4,10.4,47,30.03,10.0,Calm,Calm,-,N/A,,Clear,0,2013-02-07 21:55:00
3:15 PM,26.6,12.2,55,30.02,10.0,Calm,Calm,-,N/A,,Clear,0,2013-02-07 22:15:00
3:35 PM,26.6,10.4,51,30.01,10.0,SE,3.5,-,N/A,,Clear,130,2013-02-07 22:35:00
3:55 PM,26.6,12.2,55,30.01,10.0,Calm,Calm,-,N/A,,Clear,0,2013-02-07 22:55:00
4:15 PM,23.0,12.2,63,30.01,10.0,NNW,6.9,-,N/A,,Scattered Clouds,340,2013-02-07 23:15:00
4:35 PM,23.0,12.2,63,30.00,10.0,NNW,5.8,-,N/A,,Clear,340,2013-02-07 23:35:00
5:15 PM,19.4,10.4,68,30.00,10.0,WNW,4.6,-,N/A,,Clear,290,2013-02-08 00:15:00
5:35 PM,15.8,10.4,79,30.00,10.0,West,5.8,-,N/A,,Clear,260,2013-02-08 00:35:00
5:55 PM,14.0,8.6,79,30.00,10.0,WNW,5.8,-,N/A,,Clear,290,2013-02-08 00:55:00
6:15 PM,10.4,5.0,79,30.00,10.0,WNW,5.8,-,N/A,,Scattered Clouds,300,2013-02-08 01:15:00
6:35 PM,10.4,5.0,79,30.00,10.0,NW,6.9,-,N/A,,Clear,310,2013-02-08 01:35:00
6:55 PM,8.6,3.2,79,30.00,10.0,NW,5.8,-,N/A,,Clear,310,2013-02-08 01:55:00
7:15 PM,8.6,3.2,79,30.00,10.0,WNW,6.9,-,N/A,,Clear,300,2013-02-08 02:15:00
7:35 PM,6.8,3.2,85,29.99,10.0,WNW,8.1,-,N/A,,Clear,300,2013-02-08 02:35:00
7:55 PM,5.0,1.4,85,29.99,10.0,WNW,6.9,-,N/A,,Clear,300,2013-02-08 02:55:00
8:15 PM,5.0,1.4,85,29.98,10.0,NW,6.9,-,N/A,,Clear,320,2013-02-08 03:15:00
8:35 PM,5.0,-0.4,78,29.98,10.0,NW,8.1,-,N/A,,Clear,310,2013-02-08 03:35:00
8:55 PM,5.0,-0.4,78,29.98,10.0,NW,8.1,-,N/A,,Clear,310,2013-02-08 03:55:00
9:15 PM,3.2,-0.4,85,29.98,10.0,WNW,8.1,-,N/A,,Clear,290,2013-02-08 04:15:00
9:35 PM,3.2,-0.4,85,29.98,10.0,NW,8.1,-,N/A,,Clear,310,2013-02-08 04:35:00
9:55 PM,1.4,-4.0,78,29.98,10.0,WNW,6.9,-,N/A,,Clear,300,2013-02-08 04:55:00
10:15 PM,3.2,-2.2,78,29.97,10.0,WNW,8.1,-,N/A,,Clear,300,2013-02-08 05:15:00
10:35 PM,1.4,-4.0,78,29.97,10.0,West,6.9,-,N/A,,Clear,280,2013-02-08 05:35:00
10:55 PM,3.2,-0.4,85,29.97,10.0,WNW,8.1,-,N/A,,Clear,300,2013-02-08 05:55:00
11:15 PM,1.4,-4.0,78,29.96,10.0,WNW,5.8,-,N/A,,Clear,300,2013-02-08 06:15:00
11:35 PM,3.2,-2.2,78,29.96,10.0,NW,11.5,-,N/A,,Clear,310,2013-02-08 06:35:00
11:55 PM,3.2,-2.2,78,29.96,10.0,NW,11.5,-,N/A,,Clear,310,2013-02-08 06:55:00